Find Kosmos-1481

NORAD ID: 14182 Int'l Des: 1983-070 Owner: PVO Country: SU operational
MEOELLIPTICALHEO_ELLIPTICALSEMI_SYNC

Live Position

Loading 3D Globe...

About Kosmos-1481

Description loading...

Upcoming Passes

Passes for default location (London). Set your location on the main map for personalized predictions.

Altitude History

Loading altitude history...

Two-Line Element Set

1 14182U 83070A 26102.52627366 -.00000177 00000-0 00000-0 0 9998
2 14182 70.6153 255.5994 5611534 230.9370 64.2089 2.03584040238769
Epoch: Apr 12, 2026 • Age: 53 hours

Current Status

Altitude 29233.8 km
Velocity 2.69 km/s
Sub-Earth Point 67.92°N, 158.2°W
Launch Date Jul 8, 1983
Age 42.7 years
Type other

Technical Details

Classification Payload
Mass 1250.00 kg
Dry Mass 1150.00 kg
Total Mass 1250.00 kg
Length 4.00 m
Diameter 2.00 m
Span 5.00 m
Shape Cyl + 2 Pan
Manufacturer NPOL/KOMET
Bus Type Oko
Phase Status In Orbit
Owner/State PVO/SU

Most Searched